{"data":{"norad_id":60548,"intl_designator":"2024-149CJ","name":"ICEYE-X33","alt_names":[],"object_type":"PAYLOAD","status":"ACTIVE","operator":null,"country":"US","launch_date":"2024-08-16","launch_site_code":"AFWTR","launch_vehicle":null,"mission":null,"orbit_class":"UNKNOWN","rcs_meters":null,"size_class":null,"mass_kg":null,"dimensions":null,"purposes":[],"wikipedia_slug":null,"has_3d_model":false,"image_url":null,"decayed_at":null,"tle_current":{"epoch":"2026-09-22T16:48:37.463040Z","epoch_age_seconds":99008,"freshness":"FRESH","line1":"1 60548U 24149CJ  26265.70043360  .00002823  00000+0  22479-3 0  9998","line2":"2 60548  97.7512 344.4639 0001221  61.2124 298.9223 15.01194543114836","mean_motion":15.01194543,"eccentricity":0.0001221,"inclination_deg":97.7512,"raan_deg":344.4639,"arg_perigee_deg":61.2124,"mean_anomaly_deg":298.9223,"bstar":0.00022479,"rev_number":11483,"period_min":95.923610082028,"perigee_km":562.36407843056,"apogee_km":564.05915576285,"semimajor_km":6941.3486170967,"source":"CELESTRAK","updated_at":"2026-09-23T09:00:20.673365Z"}}}